{"data":{"norad_id":62997,"epoch":"2026-09-21T21:20:48.596640Z","epoch_age_seconds":44810,"freshness":"FRESH","line1":"1 62997U 25031S   26264.88945135  .00012857  00000+0  47577-3 0  9992","line2":"2 62997  43.0006 115.1083 0000505 291.8085  68.2713 15.27589520 91102","mean_motion":15.2758952,"eccentricity":5.05e-5,"inclination_deg":43.0006,"raan_deg":115.1083,"arg_perigee_deg":291.8085,"mean_anomaly_deg":68.2713,"bstar":0.00047577,"rev_number":9110,"period_min":94.266161239441,"perigee_km":482.6741014246,"apogee_km":483.36707834118,"semimajor_km":6861.1575898829,"source":"CELESTRAK","updated_at":"2026-09-22T09:00:49.719817Z"}}